Stündliche Wetter Jugsalai

Heute, 25 Februar, Donnerstag

Zeit Temperatur Niederschläge Wind Luftdruck Luftfeuchtigkeit
00:00 +23°C° 0 mm 1 m/S 744 mmHg 24%
01:00 +23°C° 0 mm 1 m/S 743 mmHg 26%
02:00 +22°C° 0 mm 1 m/S 743 mmHg 28%
03:00 +21°C° 0 mm 1 m/S 742 mmHg 30%
04:00 +21°C° 0 mm 1 m/S 742 mmHg 31%
05:00 +20°C° 0 mm 1 m/S 742 mmHg 32%
06:00 +20°C° 0 mm 1 m/S 742 mmHg 33%
07:00 +22°C° 0 mm 1 m/S 743 mmHg 29%
08:00 +25°C° 0 mm 1 m/S 743 mmHg 25%
09:00 +28°C° 0 mm 2 m/S 744 mmHg 21%
10:00 +31°C° 0 mm 2 m/S 744 mmHg 18%
11:00 +34°C° 0 mm 2 m/S 743 mmHg 14%
12:00 +37°C° 0 mm 3 m/S 743 mmHg 11%
13:00 +38°C° 0 mm 4 m/S 742 mmHg 10%
14:00 +40°C° 0 mm 4 m/S 741 mmHg 9%
15:00 +41°C° 0 mm 5 m/S 740 mmHg 9%
16:00 +38°C° 0 mm 4 m/S 740 mmHg 10%
17:00 +37°C° 0 mm 3 m/S 740 mmHg 11%
18:00 +35°C° 0 mm 2 m/S 740 mmHg 12%
19:00 +32°C° 0 mm 2 m/S 740 mmHg 14%
20:00 +29°C° 0 mm 1 m/S 741 mmHg 16%
21:00 +27°C° 0 mm 1 m/S 741 mmHg 17%
22:00 +24°C° 0 mm 0 m/S 741 mmHg 19%
23:00 +23°C° 0 mm 0 m/S 741 mmHg 20%

Morgen, 26 Februar, Freitag

Zeit Temperatur Niederschläge Wind Luftdruck Luftfeuchtigkeit
00:00 +22°C° 0 mm 0 m/S 741 mmHg 21%
01:00 +23°C° 0 mm 1 m/S 741 mmHg 22%
02:00 +23°C° 0 mm 1 m/S 740 mmHg 23%
03:00 +22°C° 0 mm 1 m/S 740 mmHg 23%
04:00 +22°C° 0 mm 1 m/S 740 mmHg 24%
05:00 +21°C° 0 mm 1 m/S 740 mmHg 25%
06:00 +21°C° 0 mm 1 m/S 740 mmHg 26%
07:00 +24°C° 0 mm 1 m/S 740 mmHg 23%
08:00 +26°C° 0 mm 1 m/S 741 mmHg 20%
09:00 +29°C° 0 mm 2 m/S 742 mmHg 17%
10:00 +32°C° 0 mm 2 m/S 741 mmHg 15%
11:00 +36°C° 0 mm 2 m/S 741 mmHg 13%
12:00 +38°C° 0 mm 2 m/S 741 mmHg 10%
13:00 +39°C° 0 mm 3 m/S 740 mmHg 9%
14:00 +40°C° 0 mm 3 m/S 739 mmHg 8%
15:00 +42°C° 0 mm 4 m/S 739 mmHg 7%
16:00 +39°C° 0 mm 3 m/S 739 mmHg 8%
17:00 +38°C° 0 mm 3 m/S 739 mmHg 9%
18:00 +36°C° 0 mm 3 m/S 739 mmHg 10%
19:00 +34°C° 0 mm 3 m/S 739 mmHg 11%
20:00 +30°C° 0 mm 2 m/S 740 mmHg 12%
21:00 +28°C° 0 mm 2 m/S 741 mmHg 13%
22:00 +27°C° 0 mm 1 m/S 741 mmHg 15%
23:00 +25°C° 0 mm 1 m/S 741 mmHg 16%

übermorgen, 27 Februar, Samstag

Zeit Temperatur Niederschläge Wind Luftdruck Luftfeuchtigkeit
00:00 +22°C° 0 mm 0 m/S 741 mmHg 18%
01:00 +24°C° 0 mm 1 m/S 740 mmHg 19%
02:00 +23°C° 0 mm 1 m/S 740 mmHg 19%
03:00 +23°C° 0 mm 1 m/S 740 mmHg 20%
04:00 +22°C° 0 mm 1 m/S 740 mmHg 21%
05:00 +22°C° 0 mm 1 m/S 740 mmHg 22%
06:00 +21°C° 0 mm 1 m/S 740 mmHg 23%
07:00 +24°C° 0 mm 1 m/S 740 mmHg 21%
08:00 +26°C° 0 mm 1 m/S 741 mmHg 18%
09:00 +29°C° 0 mm 1 m/S 742 mmHg 16%
10:00 +32°C° 0 mm 2 m/S 742 mmHg 14%
11:00 +36°C° 0 mm 2 m/S 741 mmHg 11%
12:00 +38°C° 0 mm 3 m/S 741 mmHg 9%
13:00 +39°C° 0 mm 3 m/S 741 mmHg 8%
14:00 +40°C° 0 mm 3 m/S 740 mmHg 7%
15:00 +42°C° 0 mm 3 m/S 739 mmHg 6%
16:00 +39°C° 0 mm 3 m/S 739 mmHg 7%
17:00 +37°C° 0 mm 2 m/S 739 mmHg 9%
18:00 +34°C° 0 mm 1 m/S 739 mmHg 10%
19:00 +32°C° 0 mm 1 m/S 740 mmHg 11%
20:00 +30°C° 0 mm 1 m/S 741 mmHg 12%
21:00 +28°C° 0 mm 1 m/S 742 mmHg 14%
22:00 +27°C° 0 mm 1 m/S 742 mmHg 15%
23:00 +26°C° 0 mm 1 m/S 742 mmHg 17%

28 Februar, Sonntag

Zeit Temperatur Niederschläge Wind Luftdruck Luftfeuchtigkeit
00:00 +25°C° 0 mm 1 m/S 742 mmHg 19%
01:00 +25°C° 0 mm 1 m/S 741 mmHg 19%
02:00 +24°C° 0 mm 1 m/S 741 mmHg 20%
03:00 +24°C° 0 mm 1 m/S 741 mmHg 21%
04:00 +23°C° 0 mm 1 m/S 741 mmHg 22%
05:00 +23°C° 0 mm 1 m/S 741 mmHg 23%
06:00 +22°C° 0 mm 1 m/S 741 mmHg 24%
07:00 +25°C° 0 mm 1 m/S 742 mmHg 22%
08:00 +28°C° 0 mm 1 m/S 742 mmHg 19%
09:00 +31°C° 0 mm 1 m/S 743 mmHg 17%
10:00 +35°C° 0 mm 2 m/S 743 mmHg 15%
11:00 +37°C° 0 mm 2 m/S 743 mmHg 13%
12:00 +39°C° 0 mm 2 m/S 742 mmHg 11%
13:00 +40°C° 0 mm 2 m/S 742 mmHg 11%
14:00 +40°C° 0 mm 3 m/S 741 mmHg 10%
15:00 +42°C° 0 mm 3 m/S 740 mmHg 10%
16:00 +39°C° 0 mm 2 m/S 740 mmHg 11%
17:00 +38°C° 0 mm 2 m/S 740 mmHg 12%
18:00 +35°C° 0 mm 1 m/S 740 mmHg 13%
19:00 +33°C° 0 mm 1 m/S 741 mmHg 16%
20:00 +31°C° 0 mm 1 m/S 742 mmHg 18%
21:00 +29°C° 0 mm 1 m/S 743 mmHg 20%
22:00 +28°C° 0 mm 1 m/S 743 mmHg 23%
23:00 +27°C° 0 mm 1 m/S 743 mmHg 25%

1 März, Montag

Zeit Temperatur Niederschläge Wind Luftdruck Luftfeuchtigkeit
00:00 +26°C° 0 mm 1 m/S 743 mmHg 28%
01:00 +25°C° 0 mm 1 m/S 743 mmHg 29%
02:00 +25°C° 0 mm 1 m/S 742 mmHg 30%
03:00 +24°C° 0 mm 1 m/S 742 mmHg 31%
04:00 +24°C° 0 mm 1 m/S 742 mmHg 32%
05:00 +23°C° 0 mm 1 m/S 742 mmHg 33%
06:00 +23°C° 0 mm 1 m/S 742 mmHg 34%
07:00 +26°C° 0 mm 1 m/S 743 mmHg 30%
08:00 +27°C° 0 mm 0 m/S 744 mmHg 25%
09:00 +30°C° 0 mm 0 m/S 745 mmHg 21%
10:00 +34°C° 0 mm 1 m/S 744 mmHg 18%
11:00 +37°C° 0 mm 1 m/S 744 mmHg 15%
12:00 +41°C° 0 mm 1 m/S 744 mmHg 13%
13:00 +41°C° 0 mm 1 m/S 743 mmHg 12%
14:00 +41°C° 0 mm 1 m/S 742 mmHg 12%
15:00 +41°C° 0 mm 2 m/S 741 mmHg 11%
16:00 +40°C° 0 mm 2 m/S 741 mmHg 12%
17:00 +38°C° 0 mm 2 m/S 741 mmHg 13%
18:00 +37°C° 0 mm 2 m/S 741 mmHg 14%
19:00 +35°C° 0 mm 2 m/S 742 mmHg 18%
20:00 +32°C° 0 mm 2 m/S 743 mmHg 22%
21:00 +29°C° 0 mm 2 m/S 743 mmHg 25%
22:00 +29°C° 0 mm 2 m/S 744 mmHg 28%
23:00 +28°C° 0 mm 1 m/S 744 mmHg 30%

2 März, Dienstag

Zeit Temperatur Niederschläge Wind Luftdruck Luftfeuchtigkeit
00:00 +27°C° 0 mm 1 m/S 744 mmHg 33%
01:00 +26°C° 0 mm 1 m/S 743 mmHg 36%
02:00 +25°C° 0 mm 1 m/S 743 mmHg 40%
03:00 +24°C° 0 mm 1 m/S 743 mmHg 44%
04:00 +24°C° 0 mm 1 m/S 743 mmHg 46%
05:00 +23°C° 0 mm 1 m/S 743 mmHg 47%
06:00 +22°C° 0 mm 1 m/S 742 mmHg 49%
07:00 +25°C° 0 mm 1 m/S 743 mmHg 41%
08:00 +27°C° 0 mm 1 m/S 744 mmHg 34%
09:00 +30°C° 0 mm 2 m/S 744 mmHg 27%
10:00 +33°C° 0 mm 1 m/S 744 mmHg 23%
11:00 +36°C° 0 mm 1 m/S 744 mmHg 18%
12:00 +41°C° 0 mm 1 m/S 744 mmHg 14%
13:00 +41°C° 0 mm 1 m/S 743 mmHg 12%
14:00 +42°C° 0 mm 2 m/S 742 mmHg 11%
15:00 +42°C° 0 mm 2 m/S 741 mmHg 9%
16:00 +41°C° 0 mm 2 m/S 741 mmHg 10%
17:00 +39°C° 0 mm 2 m/S 741 mmHg 11%
18:00 +37°C° 0 mm 2 m/S 741 mmHg 12%
19:00 +35°C° 0 mm 2 m/S 742 mmHg 16%
20:00 +32°C° 0 mm 2 m/S 742 mmHg 19%
21:00 +29°C° 0 mm 2 m/S 743 mmHg 23%
22:00 +28°C° 0 mm 1 m/S 743 mmHg 24%
23:00 +27°C° 0 mm 1 m/S 743 mmHg 26%
Mehr zeigen

Wir brauchen deine Erlaubnis

Meteoprog und unser Service Anbieter werden persönliche Daten aufbewahren, so wie Cookies, Geräte Bezeichnung oder ähnliche Technologien von deinem Gerät und Prozess, so wie Persönliche Daten Inhalte und Werbungen, genauso wie social Media und den Verkehr zu analysieren.

  • Aufbewahrung und/oder Zugang zu deiner Geräte Informationen.

    Cookies, Geräte Bezeichnung oder andere Informationen, können aufbewahrt oder Zugang zu deinem Gerät erhalten, für den Grund, der oben angegeben wird.

  • Personalisierte Werbung und Inhalte, Messungen, Einblick in das Publikum und Produkt Entwicklung.

    Werbungen und Inhalte können personalisiert werden, basierend auf ein Profil. Mehr Daten können besser personalisierte Werbungen und Inhalte hinzufügen. Werbung und Inhalte können gezeigt und gemessen werden. Einblicke über das Publikum, welche die Werbung gesehen haben und den Inhalt, können abgeleitet werden. So wie Daten können genutzt werden, um es zu verbessern oder die Benutzer Erfahrung zu verbessern das System und die Software.

Wenn du “Ich stimme zu” klickst, erlaubst du uns, die Cookies zu benutzen die Geräte Bezeichnung, den Web oder ähnliche Technologien zu benutzen. Deine Settings, können in deinem Gerät bei deinem Browser geändert werden.

Für den bestimmten Zweck, berechtigten Interessen beruhen darauf, mehr als auf den Inhalt. Du kannst mehr darüber in unseren Privaten und Cookie Politik lesen.